Tracking 27122 objects as of 26-Mar-2023
HD Live streaming from Space Station
objects crossing your sky now

STARLINK-4104

Track STARLINK-4104 now!
10-day predictions
STARLINK-4104 is classified as:


NORAD ID: 53163
Int'l Code: 2022-083AH
Perigee: 546.2 km
Apogee: 547.8 km
Inclination: 53.2 °
Period: 95.4 minutes
Semi major axis: 6917 km
RCS: Unknown
Launch date: July 17, 2022
Source: United States (US)
Launch site: AIR FORCE EASTERN TEST RANGE (AFETR)
Your satellite tracking list
Your tracking list is empty




NASA's NSSDC Master Catalog

Two Line Element Set (TLE):
1 53163U 22083AH  23084.91185890  .00012706  00000-0  81558-3 0  9997
2 53163  53.2170 331.4330 0001171 113.8188 246.2927 15.08813448 38358
Source of the keplerian elements: AFSPC